YAOGAN-30 AF (49029 NORAD) Tracking and Keplerian Element Data

This shows tracking and keplerian element data for the satellite.

Feedback or suggestion? Click here.




ElementValue
Catalog49029
NameYAOGAN-30 AF
Epoch Orbit928
Epoch Day262.16448485
Epoch Year2021
RAAN265.7843
Inclination34.9977
Eccentricity0.000471
Argument of Perigee35.6231
Mean Anonmoly324.4792
Mean Motion14.89987114
Decay Rate3.17E-06
L11 49029U 21065D 21262.16448485 .00000317 00000-0 34989-4 0 9999
L22 49029 34.9977 265.7843 0004710 35.6231 324.4792 14.89987114 9284

Live tracking and technical data element details for YAOGAN-30 AF (NORAD 49029). YAOGAN-30 AF can be tracked NOW for your location showing map with azimuth and elevation plus other details from your city location.

Track the satellite on the map from your city or location and see movement details for azimuth, elevation, latitude, longitude, range, height, and movement on the map or in text.







IsCatalogInMostPopularTable: catalog: 49029, numindb: 15
Update: records affected: 1



GetName: 49029 YAOGAN-30 AF

Hit Count: updated at: Fri, 24 Sep 2021 18:45:03 GMT